Theta_e
324 324 324 323 322 322 324 324 321 320 316 309 306 308 309 312 312 309 307 307 307 307 307 307 307 308 308 308 309 308 308 308 307 307 307 306 306 306 306 307 308 307 306 306 306 307 307 307 307 307 308 308 308 309 308 308 309 309 310 311 311 312 313 314 312 308 306 307 307 307 308 308 306 307 307 307 308 308 308 308 308 308 307 306 307
323 323 323 323 323 323 324 323 322 320 318 312 307 308 311 314 314 310 308 308 307 308 308 308 308 309 309 310 310 311 311 311 311 310 310 309 308 307 307 308 308 307 306 307 307 306 307 307 307 306 307 307 308 309 309 309 310 309 309 309 310 311 311 312 311 310 309 311 311 310 311 310 307 308 310 310 310 310 308 309 309 309 309 307 306
324 324 324 324 323 324 324 323 322 322 320 315 309 308 311 314 313 310 308 308 308 308 309 309 309 310 310 312 312 313 313 314 315 315 314 312 311 311 310 310 309 308 308 309 309 308 308 308 307 306 306 307 307 309 310 311 311 310 310 311 311 311 312 312 313 313 311 312 311 309 310 311 309 308 310 309 309 309 307 308 308 308 309 309 307
325 325 325 325 324 325 324 323 323 322 321 317 312 308 310 312 312 309 307 308 308 309 311 312 312 312 312 314 315 315 315 316 317 317 317 316 315 315 315 314 313 312 312 312 311 310 310 310 310 308 307 307 307 308 310 313 312 311 312 312 312 313 314 313 313 313 312 311 310 308 309 311 309 308 308 308 307 307 306 307 307 307 308 308 308
326 326 326 326 325 325 325 324 323 322 321 319 315 311 309 310 312 310 309 308 308 311 314 315 316 316 316 317 317 316 316 317 317 318 318 317 317 317 317 318 318 317 316 315 315 314 313 313 313 312 310 310 310 310 311 312 312 312 311 311 311 313 314 313 312 313 312 311 311 311 310 310 309 309 308 308 308 308 307 307 306 306 306 305 306
326 326 325 326 326 325 325 325 323 322 321 319 317 315 312 312 313 311 310 310 309 312 316 318 319 319 319 319 319 317 317 317 317 318 318 318 318 318 317 317 318 318 319 318 317 316 316 316 315 314 313 312 313 312 311 310 310 310 310 309 309 312 313 313 312 312 313 312 312 311 311 310 310 310 309 308 309 308 308 308 307 307 306 305 305
326 325 325 326 326 326 325 325 324 323 321 319 317 318 317 318 317 314 312 311 311 313 316 317 318 320 320 320 319 319 317 316 316 317 317 317 317 317 316 316 316 317 318 318 318 318 317 316 316 316 316 315 314 313 311 310 310 311 311 310 309 310 312 312 312 312 312 312 312 312 311 310 311 310 308 308 309 308 308 308 307 307 306 305 304
325 325 325 325 325 325 325 324 324 324 323 320 320 321 320 320 320 318 315 312 312 314 315 316 317 319 318 317 318 317 315 315 316 316 316 316 316 316 316 316 316 316 316 317 318 318 317 317 317 317 317 317 316 315 314 313 313 313 314 313 310 309 311 311 311 312 312 313 312 312 312 311 310 310 309 309 309 309 308 307 307 307 305 304 304
325 325 325 325 325 325 325 325 325 325 324 323 323 323 322 321 321 320 317 314 313 315 316 316 318 319 317 315 316 316 316 317 318 317 317 316 316 315 316 317 317 317 317 318 318 318 318 318 318 317 318 318 318 317 316 315 315 315 315 315 313 311 311 311 311 312 312 313 313 312 312 312 311 310 310 310 309 308 307 306 306 306 305 304 304
324 324 324 325 324 325 325 325 325 325 325 324 323 323 323 322 321 320 319 318 318 318 316 316 318 319 317 316 316 317 317 317 317 317 317 317 316 316 316 317 317 318 318 318 319 319 318 318 319 318 318 318 318 318 317 316 315 316 315 315 315 313 312 311 311 312 312 313 312 312 312 312 312 310 309 309 308 307 306 306 305 305 304 304 304
323 323 323 324 324 324 324 324 324 324 324 323 323 322 322 322 321 321 321 320 319 318 316 315 316 316 317 316 316 317 317 317 317 317 316 316 316 316 316 317 318 318 318 318 318 318 318 318 318 318 318 318 318 317 317 316 315 316 316 316 316 314 313 311 311 311 312 312 312 312 312 312 311 310 308 308 307 306 305 305 305 305 304 304 304
322 322 323 322 323 323 324 323 324 323 323 323 322 322 321 321 321 321 320 320 319 318 317 316 317 318 318 318 317 318 317 317 316 316 316 316 316 316 317 317 317 318 317 317 317 317 316 317 317 316 316 316 318 318 318 318 317 317 317 317 317 316 315 313 312 311 311 312 312 311 311 310 310 309 308 308 307 306 305 305 304 304 304 304 303
320 320 321 321 321 322 323 323 322 322 322 322 322 321 321 320 320 320 320 319 319 319 318 318 318 319 319 319 319 318 317 316 315 315 316 316 316 316 317 317 317 317 316 315 315 314 314 315 315 314 312 312 313 314 314 315 316 317 317 317 317 317 316 315 313 312 311 311 310 310 310 310 309 308 309 308 307 306 305 305 304 304 304 303 303
314 315 316 318 319 320 321 322 322 321 321 321 321 321 320 320 320 319 319 319 319 318 318 319 319 319 319 319 318 317 316 315 314 314 314 315 314 313 313 313 312 313 313 312 312 312 311 311 313 313 311 310 310 309 309 310 311 313 316 316 316 315 314 313 313 312 311 310 309 309 309 309 308 308 308 308 307 306 305 304 304 304 304 304 303
311 311 311 312 313 315 316 318 318 319 319 319 319 320 320 320 320 319 319 319 319 318 318 319 318 318 318 316 314 313 313 313 312 312 312 311 310 309 309 308 309 312 312 310 310 311 309 308 309 310 309 308 307 306 308 310 309 309 313 315 315 314 313 312 311 311 311 310 309 308 308 308 308 308 307 307 306 306 305 304 304 304 303 302 302
309 309 309 309 309 310 311 312 313 314 314 315 317 318 318 318 318 318 318 318 317 317 317 318 317 315 314 312 311 311 311 310 310 309 308 307 306 306 308 308 310 312 311 310 310 309 308 307 308 309 308 306 304 304 305 308 309 311 313 315 314 313 313 311 310 310 310 309 308 307 307 307 307 307 306 306 305 305 304 303 302 302 301 300 300
309 308 308 308 307 307 308 309 310 310 311 313 314 314 314 314 314 314 315 315 315 314 314 314 313 312 311 310 309 308 307 305 304 303 303 303 302 303 306 309 310 310 309 309 309 309 308 308 308 309 308 306 304 304 303 305 309 313 314 313 312 312 311 310 309 309 308 307 307 306 307 307 306 306 306 305 304 303 302 301 299 299 299 298 299
308 308 307 307 307 307 306 307 309 309 310 311 312 311 310 311 310 311 313 313 313 312 312 311 310 309 309 307 306 304 302 301 301 301 301 301 301 303 307 310 310 309 308 307 308 309 309 309 309 308 308 306 305 305 304 306 310 313 313 312 310 309 309 309 308 307 306 306 306 306 306 306 305 305 304 303 303 302 300 298 296 296 296 297 298
306 306 306 306 307 307 306 306 307 308 309 310 309 309 310 310 308 310 311 311 311 310 309 308 307 306 305 304 303 302 302 302 302 302 302 302 301 304 310 312 311 309 309 309 308 309 309 309 308 308 307 306 305 305 304 306 309 310 310 310 308 307 308 308 307 306 305 305 306 306 305 305 304 304 304 303 302 301 298 296 295 295 296 297 297
303 304 305 305 306 307 306 306 306 307 308 308 307 309 310 309 307 307 309 309 309 308 308 307 306 304 303 302 302 303 303 303 303 303 303 303 302 304 309 311 310 308 309 309 309 308 308 308 308 307 306 305 305 305 304 304 305 306 307 308 307 307 307 306 305 305 305 305 305 304 304 304 303 303 302 301 300 299 297 296 295 295 296 296 296
301 302 303 303 304 305 306 306 306 306 306 306 306 307 308 308 307 306 307 308 308 306 306 306 304 303 303 303 303 303 303 303 304 303 304 304 303 304 307 309 309 309 309 308 309 308 306 306 306 305 305 304 304 304 304 304 305 305 305 306 306 305 305 305 304 304 304 304 304 303 303 302 301 300 299 298 297 297 296 296 296 296 295 296 296
299 300 300 301 302 303 304 305 305 306 306 306 306 306 306 307 307 307 307 307 306 305 304 305 304 304 304 304 304 304 304 304 304 304 304 304 303 303 305 305 305 307 308 308 308 307 305 304 305 305 304 304 304 304 304 304 304 304 305 305 305 304 304 304 304 303 303 302 301 300 300 299 298 298 298 297 297 296 296 296 296 295 295 295 295
297 298 299 299 300 300 301 302 303 304 305 305 306 305 306 306 307 308 308 307 306 305 305 304 305 304 304 304 305 305 305 304 304 304 304 304 303 302 302 302 301 304 307 308 307 304 303 303 305 304 304 304 304 303 304 304 304 304 303 303 303 303 302 302 302 301 300 299 297 297 297 297 297 297 297 296 296 296 295 295 295 294 294 294 294
296 297 297 298 298 298 299 300 301 302 303 304 304 305 305 306 306 308 309 308 308 307 306 306 306 305 305 306 305 305 305 304 304 304 303 303 302 301 301 301 300 302 305 306 304 302 301 302 303 304 304 304 303 303 303 303 303 302 301 301 301 301 301 300 299 298 297 296 296 296 297 297 296 296 296 295 295 294 294 294 293 294 294 294 294
296 296 297 298 298 298 298 298 299 300 301 301 302 304 304 305 306 307 308 309 309 309 308 307 307 307 307 308 307 305 305 304 304 303 303 302 301 301 301 301 301 301 303 304 303 302 302 302 302 304 304 304 303 303 303 302 302 301 300 300 299 298 297 296 295 295 295 296 296 296 296 295 295 295 295 294 294 293 293 294 294 294 294 293 293
296 296 297 298 299 298 298 298 299 300 300 301 302 302 303 304 304 306 307 308 308 308 308 308 308 308 307 308 308 306 305 304 304 303 302 301 301 301 301 300 301 302 302 303 303 303 303 302 303 304 304 304 303 303 302 302 301 300 299 297 296 295 295 294 294 294 294 295 295 295 295 295 294 294 294 293 293 293 293 293 293 293 292 292 292
297 297 297 298 298 299 298 298 299 299 300 300 301 302 302 303 303 304 306 307 307 307 307 307 308 308 307 307 308 307 305 304 304 303 302 301 301 301 301 301 301 302 302 303 304 303 303 303 303 303 303 303 303 302 302 301 299 297 296 295 294 294 294 294 294 294 294 295 294 294 294 293 293 293 293 292 292 292 292 292 292 292 292 291 291
297 297 298 298 298 298 298 298 298 298 298 300 301 302 302 303 303 303 305 305 306 307 307 307 307 307 306 305 306 307 306 304 304 303 301 301 301 301 300 301 301 302 303 303 303 303 303 304 303 303 303 302 302 300 299 297 296 295 295 294 294 294 294 294 294 294 295 294 294 293 293 293 293 293 292 292 292 292 292 291 291 291 291 291 291
296 296 297 297 298 298 299 299 298 298 299 300 300 301 301 301 302 303 303 304 304 305 306 306 307 306 305 304 305 306 306 305 305 303 302 301 301 301 300 301 301 302 302 302 303 303 303 303 303 302 302 301 299 297 296 295 295 294 294 293 293 294 294 294 294 294 294 293 293 293 292 292 292 292 292 292 292 291 291 291 291 291 291 291 291
296 296 297 298 298 298 299 299 299 299 300 300 300 300 300 299 300 301 301 302 302 303 303 305 306 305 305 306 306 306 305 305 304 302 302 301 301 301 300 301 301 301 302 302 303 303 303 302 302 301 300 298 297 296 295 295 294 294 294 293 293 294 293 293 293 293 293 292 292 292 292 292 291 291 291 291 291 291 291 291 291 291 291 291 291
295 296 296 297 297 297 298 298 298 299 299 299 300 300 300 299 299 299 299 300 301 302 302 302 303 304 305 305 305 304 304 304 303 302 302 301 301 301 301 300 301 301 302 303 303 303 302 301 300 299 297 296 295 295 294 294 293 293 293 293 293 293 292 293 292 292 292 292 292 292 292 291 291 291 291 291 290 290 290 290 290 291 291 291 291
295 295 295 296 296 296 296 297 297 297 298 298 299 299 300 300 299 299 298 298 299 300 301 302 302 303 303 303 303 303 303 303 303 302 302 302 302 302 301 301 301 302 303 303 302 301 300 299 297 297 296 295 295 294 293 293 293 293 293 293 292 292 292 292 292 292 292 292 292 292 292 291 291 291 291 290 290 290 290 290 290 290 291 291 291
295 295 295 295 295 295 295 296 296 296 297 297 298 298 298 299 299 299 299 298 298 298 299 300 301 302 302 302 302 302 303 303 303 302 303 302 302 302 301 302 302 302 303 302 300 299 298 297 296 296 295 295 294 293 293 293 293 292 292 292 292 291 291 291 291 292 292 292 292 292 292 291 291 291 291 290 290 290 290 290 290 290 290 290 290
295 295 295 295 295 295 295 296 296 296 296 297 297 297 297 298 298 299 299 299 299 298 298 298 300 301 301 302 302 302 303 303 302 302 302 302 302 302 302 303 302 302 302 301 298 297 297 297 296 295 295 294 293 293 293 293 292 292 292 291 291 291 290 290 291 291 291 292 292 292 292 291 291 291 290 290 290 290 290 290 290 290 290 290 290
295 295 295 295 295 295 295 295 296 296 296 296 296 296 297 297 297 298 298 299 299 299 299 298 298 299 300 301 301 302 302 302 301 301 301 301 302 302 302 303 302 302 301 299 297 296 297 296 296 295 294 293 293 293 293 292 292 292 291 291 290 290 290 290 291 291 291 291 292 292 291 291 291 290 290 290 290 290 289 290 290 290 290 290 290
295 295 295 295 295 295 295 295 295 295 295 296 296 296 296 296 296 297 297 298 298 299 300 300 299 298 298 299 299 300 301 300 300 301 302 303 303 303 301 300 300 299 298 297 296 296 296 296 295 295 294 293 293 293 292 292 292 292 291 290 290 290 289 290 290 291 291 291 292 291 291 291 290 290 290 290 290 290 289 289 289 290 290 290 290
295 296 296 296 296 296 296 296 295 295 295 295 295 295 295 295 295 296 296 297 297 298 299 300 300 298 298 298 299 299 299 300 300 302 303 303 303 302 300 298 297 296 295 296 296 295 295 295 294 294 294 293 293 293 292 292 292 291 291 291 290 290 289 290 290 290 291 291 292 291 291 291 290 290 290 290 290 289 289 289 289 289 289 289 290
296 296 297 296 296 296 296 296 295 295 295 295 295 295 295 295 294 294 295 295 297 297 298 299 300 299 298 298 299 299 300 300 299 300 302 303 302 301 299 297 297 296 295 296 296 295 295 294 294 293 293 293 293 293 292 292 291 291 291 291 290 289 289 290 290 291 291 291 291 291 291 291 290 290 290 290 289 289 289 289 289 289 289 290 290
296 296 297 297 296 296 295 295 295 295 295 295 294 294 294 294 294 294 294 294 295 296 297 298 299 299 299 298 299 299 300 299 298 300 302 302 300 298 297 296 296 296 295 295 295 295 294 293 293 293 293 293 292 292 292 291 291 291 291 291 290 289 289 290 290 291 291 291 291 291 291 290 290 290 290 289 289 289 289 289 289 289 290 290 290
296 296 297 297 297 296 296 295 294 294 294 294 294 294 294 294 294 294 294 294 294 296 297 297 298 299 299 298 298 299 299 299 300 302 302 300 297 296 296 295 295 295 295 295 295 294 293 293 292 293 293 292 292 292 292 291 291 291 291 290 289 289 289 289 289 290 290 290 290 290 290 290 290 290 289 289 289 289 289 289 289 289 290 290 290
296 296 296 297 297 297 296 295 294 294 294 294 294 294 294 294 294 294 293 293 295 296 297 297 298 298 298 298 298 298 299 300 301 301 300 298 296 295 294 294 294 294 295 295 295 293 292 292 292 292 292 292 292 292 291 291 291 291 290 290 289 289 289 289 289 289 289 289 289 290 290 289 290 290 289 289 289 289 289 289 290 290 290 290 290
295 295 295 296 296 296 296 296 295 294 294 294 294 294 294 294 294 293 293 294 296 297 297 297 297 297 298 298 299 300 301 301 299 297 296 295 295 294 293 294 294 294 294 295 294 292 291 292 292 292 292 291 291 291 291 291 291 290 289 289 289 289 289 289 289 289 289 289 289 290 290 290 290 290 290 290 289 290 289 289 289 289 290 290 291
295 294 294 295 296 296 296 295 295 295 295 295 294 294 294 294 293 293 294 295 296 296 296 296 296 297 299 300 300 300 300 299 296 294 293 294 294 293 293 294 294 294 294 294 293 291 291 292 292 292 292 292 292 292 291 291 291 290 289 289 289 289 289 289 289 289 289 289 289 290 290 290 290 290 290 290 290 289 289 289 290 290 290 290 291
295 294 294 294 295 295 295 295 295 295 294 294 294 294 293 293 293 294 294 295 295 295 295 295 297 298 299 299 298 298 297 295 294 293 293 293 294 294 294 294 294 294 294 294 292 291 291 291 291 291 292 292 292 292 291 290 290 289 289 289 289 289 289 289 289 289 289 289 289 290 290 290 290 290 290 290 290 289 289 290 290 290 290 290 291
296 295 294 294 294 294 294 294 295 295 294 294 295 294 294 294 294 295 295 295 295 295 295 296 297 297 296 296 295 295 294 294 294 294 294 294 294 294 294 294 293 294 294 293 291 290 290 291 291 292 292 292 292 291 290 290 289 289 289 289 288 288 288 288 288 289 289 289 289 289 290 290 290 290 290 290 290 289 290 290 290 290 290 290 291
296 296 295 294 294 294 293 293 294 294 295 295 295 295 295 295 296 296 296 296 296 296 296 295 295 295 294 294 294 294 294 294 294 294 294 294 294 294 293 293 294 293 293 291 290 290 291 291 291 291 292 292 291 291 290 289 289 289 289 288 288 288 288 288 288 288 289 289 289 289 290 290 290 290 290 290 289 290 290 290 290 290 290 291 291
296 296 295 295 294 294 294 293 293 294 294 295 295 295 295 295 295 295 295 295 295 296 296 295 294 294 294 294 294 294 294 294 294 294 294 293 293 293 294 293 293 292 290 289 289 291 292 292 292 291 292 291 291 290 289 289 289 288 288 288 289 288 288 287 287 288 288 288 289 289 289 290 290 290 290 289 289 290 290 290 290 290 291 291 291
295 295 296 295 295 294 294 294 294 294 294 294 294 294 294 294 293 293 293 293 294 294 294 294 294 293 294 294 294 294 294 294 294 293 293 293 293 294 294 294 293 291 289 289 290 291 292 292 291 291 291 291 290 289 289 289 288 288 288 289 289 289 289 288 287 287 288 288 289 289 289 290 290 290 290 289 290 290 290 290 290 290 291 291 291
295 295 295 295 295 295 294 294 294 294 294 294 294 294 294 294 293 293 293 293 293 293 294 294 294 294 294 294 294 294 294 294 294 293 293 293 294 294 294 294 293 291 289 289 290 291 291 291 291 291 291 290 289 288 288 288 288 288 289 289 289 289 289 289 288 287 287 288 288 289 289 289 290 290 290 290 290 290 290 290 290 290 290 291 291
294 294 294 294 294 294 294 294 294 294 294 294 294 294 294 294 294 294 294 294 294 294 294 294 294 294 295 295 294 294 294 294 293 293 293 293 294 293 293 293 293 292 289 289 290 291 291 291 291 291 290 289 288 288 288 288 288 289 289 289 289 289 289 289 288 287 287 287 288 289 289 289 290 290 290 290 290 290 290 290 290 290 290 291 291
292 293 293 294 294 294 294 294 294 294 294 294 294 294 294 294 294 294 294 294 294 294 294 294 294 294 294 294 293 293 293 292 292 293 293 293 293 293 293 293 293 291 289 289 290 291 291 291 291 290 289 288 288 288 288 288 288 289 289 289 290 290 290 290 289 288 287 287 288 288 289 289 289 289 289 290 290 290 290 290 290 290 290 291 291
Wind_Speed
10 10 12 14 16 16 14 14 15 14 14 14 15 16 15 12 10 11 14 13 11 10 11 11 10 10 9 8 8 8 7 7 8 8 8 8 8 8 9 9 8 7 8 8 8 8 8 8 8 7 8 7 8 7 6 7 7 6 6 5 4 4 3 3 5 5 3 1 2 2 4 4 4 5 6 7 9 9 9 10 11 11 11 12 14
10 10 11 13 16 17 15 16 17 16 15 16 17 17 15 12 11 12 13 14 14 13 12 11 11 10 9 8 7 7 6 6 6 5 5 5 6 6 7 7 6 6 6 6 6 5 6 5 5 5 5 5 6 5 4 5 5 4 5 5 4 5 4 4 5 5 3 1 2 2 4 4 2 5 8 8 9 9 9 10 12 12 11 11 13
12 11 11 13 16 18 17 17 18 17 15 16 18 19 16 12 12 13 13 15 15 14 14 12 11 10 9 8 7 6 6 5 4 4 3 3 4 4 4 5 5 5 5 5 4 4 4 4 3 3 3 3 4 4 4 5 4 3 5 5 5 5 5 4 4 4 3 1 2 2 3 6 4 5 9 10 11 10 8 10 12 13 15 13 13
13 11 10 11 12 16 18 19 20 19 17 17 19 19 18 14 13 13 15 15 15 15 14 13 12 11 10 9 8 7 6 5 4 4 3 3 3 3 4 4 4 4 4 4 4 4 4 3 3 3 3 2 2 3 3 4 4 3 4 4 5 5 4 3 2 2 4 3 3 2 2 6 5 6 8 10 12 12 10 12 13 13 16 16 16
11 9 8 8 9 12 16 19 20 20 19 19 19 20 19 17 14 14 16 16 16 16 15 14 13 12 11 10 9 8 8 7 6 5 5 4 4 4 4 4 4 4 4 4 4 4 4 5 4 5 5 4 2 2 2 3 4 3 3 3 3 5 4 3 2 2 3 3 2 1 2 2 3 7 7 6 8 8 8 11 13 14 17 19 18
11 9 7 7 8 9 13 16 18 19 19 19 20 21 20 18 16 15 17 18 18 17 16 15 13 11 10 10 9 9 10 9 8 7 7 6 6 6 5 5 6 6 5 5 5 5 6 6 6 7 6 6 5 5 5 6 5 3 4 4 3 5 4 3 2 2 2 3 3 3 3 2 4 6 7 9 10 8 7 11 11 11 16 20 19
8 6 5 6 7 8 11 14 16 16 17 18 19 20 20 20 18 16 17 19 19 18 17 16 14 12 11 10 10 11 11 12 11 10 9 9 9 9 9 9 9 9 9 8 8 7 7 8 9 9 9 9 9 9 9 10 8 7 7 7 5 6 5 4 4 4 3 4 4 4 4 4 5 5 7 11 10 7 9 13 12 11 15 20 20
5 4 5 5 7 8 9 12 14 14 15 17 18 19 20 20 19 17 18 20 19 18 18 18 17 15 14 13 12 13 13 13 12 12 13 13 14 14 13 11 11 11 12 11 11 10 9 9 11 12 12 13 12 11 10 11 11 11 12 10 9 9 7 6 5 5 5 5 6 6 5 6 7 7 8 9 7 6 12 17 16 13 16 19 18
4 4 5 5 6 7 8 11 13 14 16 19 21 20 19 20 21 21 21 20 19 18 18 19 17 17 17 16 15 15 14 13 13 14 15 15 16 16 15 13 12 12 12 12 12 12 12 12 13 14 14 14 14 13 13 12 11 12 13 12 12 12 10 7 6 6 6 7 8 8 8 8 9 9 8 9 10 12 16 19 17 15 17 18 15
3 4 4 5 7 7 8 10 12 12 14 17 18 17 16 18 22 23 22 21 20 19 19 19 18 17 17 18 17 16 16 16 16 16 17 18 18 18 15 13 11 11 11 12 13 13 14 14 14 15 15 14 13 13 13 12 12 12 12 12 12 13 12 10 8 8 8 9 10 10 11 12 11 9 8 11 14 16 17 17 17 16 17 18 16
4 4 5 5 5 6 7 8 8 8 9 9 11 13 14 16 19 20 20 19 19 19 18 18 18 17 17 18 19 18 17 17 17 18 19 19 18 16 14 12 11 10 11 11 11 11 10 10 11 13 13 13 13 13 13 14 15 15 14 14 14 14 14 13 11 11 10 10 10 11 11 11 10 9 9 11 13 16 18 18 17 15 16 19 19
4 4 4 3 3 4 5 6 6 6 7 7 9 11 13 14 16 17 18 17 17 16 16 16 16 15 16 17 17 17 17 17 16 15 14 12 11 11 10 10 8 8 8 7 7 7 6 6 7 8 9 10 11 12 13 15 16 16 18 18 17 18 17 16 14 13 12 11 11 10 11 12 12 12 13 14 15 18 19 17 13 14 18 22 21
5 4 4 3 3 4 4 4 5 5 6 6 7 9 12 14 15 17 18 18 17 16 15 15 16 15 15 15 14 14 13 12 10 8 6 5 6 7 7 6 5 5 5 5 5 5 5 5 5 6 7 9 10 11 12 14 15 15 17 19 20 20 20 19 17 16 15 15 14 13 15 16 15 15 17 18 18 19 20 18 16 20 24 25 25
7 7 5 4 3 3 2 3 4 5 5 6 7 8 11 13 15 17 18 18 19 18 16 15 16 15 15 14 11 9 8 7 6 5 5 5 5 5 5 5 5 5 5 5 5 5 5 6 5 6 7 8 9 10 10 11 14 15 15 17 19 20 20 20 19 18 18 17 16 16 18 18 17 18 19 19 19 20 21 21 22 25 28 30 31
7 7 6 5 4 3 2 2 3 4 5 5 6 8 10 12 14 15 15 16 17 16 14 13 14 14 14 13 10 8 7 7 6 5 5 5 5 4 4 4 4 4 4 4 5 5 5 6 6 6 7 8 9 11 10 11 13 15 16 15 16 19 20 20 19 18 18 18 18 18 19 19 19 20 20 19 20 22 23 25 27 29 31 31 29
5 5 5 5 4 4 3 2 3 3 4 4 4 6 7 8 8 8 9 11 11 11 11 11 12 12 11 10 9 9 9 8 7 6 6 5 5 4 4 3 4 5 4 5 5 6 7 8 7 6 7 9 10 10 11 12 13 15 15 15 16 17 17 17 18 18 19 19 20 20 20 20 20 20 20 20 21 22 24 26 27 25 24 23 22
3 2 1 3 4 3 2 1 2 4 4 4 5 5 5 5 6 7 8 8 9 11 12 12 12 11 10 9 9 9 9 7 6 6 5 5 5 4 4 4 5 5 5 6 8 9 10 10 8 7 8 9 10 9 10 12 13 13 13 14 14 15 14 15 18 19 20 20 20 20 20 20 20 20 21 22 22 23 24 24 22 19 19 20 20
2 1 1 2 4 5 4 3 3 4 4 5 6 7 7 7 7 7 9 10 11 13 14 13 12 11 10 10 9 8 7 5 4 4 3 3 2 2 3 4 5 5 5 8 10 10 10 10 9 9 9 10 10 9 9 10 10 11 11 11 11 11 13 15 17 19 19 19 20 21 21 22 22 22 23 24 24 25 24 24 23 22 21 21 20
2 3 4 4 4 5 6 7 7 6 4 5 7 7 8 9 9 10 10 11 12 13 13 13 13 12 11 10 9 7 6 4 3 3 2 2 2 0 2 3 4 4 5 7 10 10 10 10 9 9 9 9 8 8 8 8 8 8 8 7 7 8 11 15 17 19 20 20 21 22 22 23 24 25 27 28 28 27 26 26 26 24 21 19 18
5 5 6 6 6 7 7 8 10 10 8 9 9 8 8 10 12 12 12 12 13 13 13 13 13 12 11 11 9 7 5 4 3 3 3 4 3 1 2 4 4 4 5 6 7 9 10 10 10 9 9 8 8 8 7 7 6 6 6 6 8 10 14 17 18 19 20 21 22 24 25 26 28 29 30 29 29 28 27 27 26 21 18 18 18
8 8 8 7 8 10 11 11 11 11 11 12 12 12 11 12 13 14 15 14 15 16 15 14 14 13 12 11 9 7 5 5 6 7 7 7 7 4 2 3 3 4 5 5 5 7 10 11 10 10 10 9 9 8 7 7 6 6 7 8 11 14 16 18 19 20 22 23 24 25 25 25 24 23 21 20 20 20 21 21 19 16 16 17 19
13 13 12 12 12 13 14 14 15 15 14 14 14 15 15 16 16 17 17 17 19 20 18 16 16 16 15 13 10 8 7 9 9 10 9 9 9 7 4 3 3 3 5 5 5 6 10 10 10 10 9 9 8 8 8 7 7 8 9 11 14 16 17 19 20 21 20 20 20 20 20 17 15 14 14 14 14 15 17 16 15 15 16 18 19
17 16 17 17 17 16 16 16 17 18 18 18 18 18 18 19 19 19 19 20 21 22 21 19 19 18 16 13 12 10 11 11 11 10 9 8 8 8 6 5 4 2 4 5 6 8 10 9 9 9 9 8 9 9 9 9 9 10 12 13 16 17 17 18 18 18 17 16 16 16 14 13 13 12 13 13 13 15 16 15 14 15 17 17 18
19 19 19 20 20 21 20 19 19 19 20 19 19 20 20 20 20 18 18 20 21 21 21 20 20 19 17 15 15 14 13 14 13 11 9 8 7 7 5 5 4 2 3 5 7 9 10 9 9 9 9 9 9 10 11 12 12 12 13 13 14 14 14 13 13 14 15 15 14 13 12 13 13 13 14 15 15 14 14 14 15 16 17 17 18
20 19 19 19 20 22 23 23 23 22 22 22 21 22 22 22 21 18 17 19 20 20 21 21 21 19 17 17 18 18 16 16 14 12 9 8 7 6 5 5 5 4 5 6 8 9 9 9 9 9 9 10 10 11 12 13 13 13 13 13 13 12 12 12 12 13 13 11 12 13 13 13 13 14 17 17 15 14 14 15 16 16 16 16 16
22 21 21 19 20 21 23 24 24 23 24 25 23 23 24 24 23 21 19 20 21 21 21 21 21 20 19 17 17 19 20 18 16 12 10 9 7 6 5 5 5 6 7 8 9 9 9 10 10 9 10 11 11 12 13 13 13 13 13 12 11 11 13 13 14 14 13 11 12 13 12 12 14 16 16 15 12 12 13 14 14 13 13 14 14
23 23 22 21 21 21 22 24 24 25 27 26 23 22 23 23 23 24 22 22 23 24 23 23 21 21 21 21 19 20 22 21 17 14 12 11 9 7 6 6 6 7 8 9 9 10 10 10 10 10 10 11 12 13 13 13 12 11 11 11 12 13 14 14 15 14 11 9 11 12 12 12 14 14 13 11 11 11 11 12 12 12 12 13 13
24 24 23 23 24 24 23 24 26 28 28 25 22 22 21 21 22 22 20 20 20 21 23 25 24 24 28 29 24 21 21 20 18 16 15 12 10 9 8 7 8 9 10 10 10 10 10 10 11 10 10 11 11 11 10 11 11 10 10 11 13 13 13 14 13 11 8 9 10 11 11 11 11 11 11 12 12 12 11 11 12 13 12 12 13
26 27 26 25 25 24 23 24 25 25 24 23 23 24 24 24 23 21 20 24 25 23 22 22 21 23 29 29 23 20 18 18 18 17 15 13 12 11 9 9 9 11 11 11 10 11 11 11 11 10 10 10 9 6 6 8 10 11 12 11 9 8 9 10 9 7 8 10 10 9 9 10 11 11 12 12 12 12 12 12 12 12 12 13 13
24 25 24 23 22 22 22 22 21 21 21 21 21 23 25 30 31 28 26 28 30 28 26 24 22 23 25 25 22 20 18 18 18 17 15 15 14 13 10 10 10 11 10 11 11 11 11 11 11 10 9 8 6 5 5 7 6 7 9 10 7 7 8 8 8 9 10 9 8 9 10 10 11 11 11 11 13 13 12 12 12 12 13 13 14
22 22 22 22 22 22 23 23 23 22 22 21 20 20 21 25 31 34 33 31 29 26 26 26 25 26 28 28 26 24 23 22 20 17 16 16 15 12 11 10 10 11 11 12 12 11 10 10 10 9 8 7 6 6 6 6 5 4 5 5 6 7 9 9 11 12 10 8 8 9 9 10 11 11 12 13 14 14 12 12 12 12 13 14 15
20 21 21 22 23 23 24 24 24 24 24 23 22 22 21 21 23 28 32 34 32 29 26 25 25 26 28 28 28 27 27 25 21 18 17 16 14 11 11 11 11 12 12 11 11 10 10 10 9 9 8 7 7 7 6 5 5 4 2 2 4 6 8 9 13 13 9 8 10 9 9 10 11 12 13 14 14 14 13 13 12 13 14 14 15
17 18 18 19 20 21 22 23 23 23 24 24 23 24 25 24 22 21 25 30 33 33 31 27 25 25 26 27 27 27 27 25 22 19 17 15 12 12 13 13 14 14 13 12 11 11 11 11 10 8 7 7 6 6 5 4 3 2 1 2 4 6 8 10 13 12 9 9 10 9 9 10 11 12 13 13 13 13 13 13 14 14 14 14 15
20 20 19 18 18 19 19 21 21 21 21 23 23 23 24 25 24 21 20 22 26 31 34 33 30 27 26 26 26 26 24 22 19 16 13 12 13 16 17 17 16 15 14 13 11 12 12 11 9 8 7 7 6 5 4 4 3 1 2 3 5 6 9 10 11 11 10 10 10 10 10 11 11 12 13 12 13 13 14 14 15 14 15 17 18
17 18 19 19 19 19 19 19 20 20 21 21 21 21 21 21 22 23 22 20 18 20 25 31 34 31 28 25 25 24 23 20 16 13 13 15 18 21 22 21 19 18 17 14 12 12 11 10 9 8 7 7 6 5 5 4 2 0 2 4 5 7 10 11 11 12 12 10 10 10 10 11 11 12 13 14 15 15 15 15 16 16 18 19 19
15 16 16 17 18 18 19 18 18 19 19 20 19 17 17 17 17 19 20 20 19 17 16 20 28 32 31 27 24 23 24 21 18 15 16 18 20 21 21 20 19 18 16 14 12 11 10 10 9 8 7 6 6 5 5 3 1 0 2 5 6 8 10 10 11 13 12 10 10 11 11 11 12 12 14 15 15 15 15 16 17 19 19 19 19
13 14 14 16 17 18 19 20 21 21 21 21 20 18 16 15 15 15 15 16 18 18 15 15 20 26 30 28 25 23 24 22 18 16 15 16 19 21 21 21 20 17 13 11 11 11 10 9 9 8 7 7 6 5 5 3 1 1 4 6 7 9 11 12 14 16 14 11 11 11 11 11 12 14 15 15 15 14 15 16 17 19 18 17 17
10 12 13 14 16 17 19 20 22 23 24 24 23 22 19 15 13 14 14 14 16 17 16 16 16 18 23 27 25 22 21 21 19 17 16 17 19 21 21 20 19 16 13 11 11 11 9 8 8 8 7 7 7 6 4 2 0 2 5 6 7 9 11 12 13 14 12 11 12 12 11 11 13 14 14 14 14 14 15 16 17 17 16 15 15
11 12 12 13 14 15 16 17 17 18 19 21 22 23 22 19 18 18 17 15 15 16 16 17 16 14 20 27 27 23 21 21 20 20 20 21 21 21 19 16 14 14 14 13 12 10 8 8 8 8 8 8 7 6 4 2 1 3 5 6 6 8 9 10 11 11 12 14 13 11 11 13 13 13 13 13 13 14 15 16 16 16 15 15 17
12 12 11 11 11 12 12 12 12 11 10 12 15 16 17 19 21 21 18 14 13 13 14 16 16 14 18 24 26 23 21 22 22 22 23 24 23 21 19 17 16 17 17 14 11 9 8 7 8 8 8 8 7 5 4 2 1 4 5 6 6 7 9 10 12 13 16 18 17 14 14 16 17 15 14 12 13 15 17 18 18 16 15 17 19
10 12 13 11 10 10 9 8 7 6 4 4 7 9 11 14 17 18 15 11 11 11 12 14 15 14 16 19 21 20 20 22 24 25 27 28 26 24 22 21 20 19 16 12 9 8 8 8 8 8 7 7 6 4 2 2 2 3 5 6 7 8 9 10 13 14 17 19 20 19 19 19 20 19 17 16 16 18 18 17 16 15 15 17 19
11 12 14 16 14 12 10 7 5 4 3 1 2 5 7 9 11 12 11 10 10 11 12 12 13 14 15 17 18 19 22 25 27 29 30 30 27 25 23 22 19 15 12 10 9 8 9 9 8 7 7 8 6 4 2 2 2 3 5 6 7 8 8 10 12 15 17 19 21 21 20 20 20 21 21 20 19 17 16 16 16 16 16 18 19
11 11 13 16 16 15 13 11 9 8 6 5 3 3 4 4 7 8 9 9 9 10 11 11 13 15 16 17 18 19 21 22 23 25 27 27 26 25 22 19 16 13 11 9 8 8 9 9 8 7 8 9 7 5 3 2 3 3 5 6 7 8 8 10 12 14 16 19 20 21 21 21 21 22 21 20 18 16 15 16 17 16 16 17 19
12 12 13 15 16 15 15 15 14 13 12 10 8 7 7 6 7 8 8 8 9 9 9 10 12 14 15 15 15 15 16 17 20 24 26 26 25 23 20 17 14 11 10 9 9 9 9 9 7 7 9 8 6 4 3 2 2 4 5 6 7 8 8 10 11 13 16 18 20 21 21 21 22 22 21 20 18 15 15 16 16 15 16 17 18
14 13 14 16 16 15 15 15 16 15 15 14 13 12 10 9 9 8 8 8 9 9 10 12 13 14 16 17 17 18 20 23 25 27 26 24 21 19 16 14 12 10 9 9 9 10 9 7 6 9 10 8 5 4 2 1 2 4 6 7 8 9 9 9 11 13 15 18 20 22 22 22 22 21 21 19 18 15 15 15 15 16 17 17 17
15 15 15 16 17 19 19 18 17 17 17 16 15 15 13 12 12 10 10 11 12 12 14 17 18 19 20 22 22 22 24 26 27 26 24 21 18 16 14 12 10 9 9 8 9 10 9 7 7 9 9 6 5 4 2 0 2 4 5 7 9 10 10 10 11 12 14 17 20 21 22 22 22 21 20 19 16 15 16 15 15 16 17 17 16
13 14 15 16 17 19 22 23 22 22 22 21 20 19 19 19 18 17 16 16 17 18 20 21 21 21 22 22 23 24 24 24 23 21 19 18 16 14 12 10 9 8 8 8 8 9 8 8 8 9 7 6 5 4 2 0 2 4 5 7 9 11 12 12 12 12 13 16 19 21 21 21 21 21 21 18 15 15 16 15 15 15 16 16 15
9 10 12 14 15 15 17 20 21 23 24 24 24 23 23 23 23 22 21 20 21 22 22 22 22 22 22 22 22 21 20 19 18 17 17 16 15 12 10 8 7 8 8 7 7 7 8 8 8 7 6 6 5 4 1 1 2 3 5 6 8 11 13 14 14 13 13 15 18 20 20 21 21 22 19 16 15 15 15 14 15 16 16 15 14
7 7 9 12 13 13 14 15 17 19 20 21 22 22 22 22 22 21 21 20 20 20 20 20 20 20 19 19 18 17 16 16 17 17 17 15 13 11 9 7 6 6 7 7 7 7 8 7 7 6 6 6 5 3 1 2 3 3 4 5 7 9 12 14 15 14 13 14 16 19 20 20 21 20 17 14 14 14 14 14 15 16 14 14 14
6 7 8 9 10 11 11 12 13 14 16 17 17 18 18 18 18 18 18 18 17 17 16 15 15 14 13 14 14 14 15 16 16 16 15 14 11 10 8 7 6 6 7 7 7 8 7 7 6 6 6 5 4 2 2 3 3 3 4 6 8 9 11 13 15 15 14 14 15 17 18 18 20 19 15 12 13 14 14 13 14 14 13 12 13
6 7 7 7 7 8 9 9 10 11 11 12 13 13 14 15 14 14 13 12 12 12 12 12 12 12 12 13 13 14 14 14 13 13 13 12 10 8 7 6 6 7 7 7 7 7 7 6 6 6 6 5 3 2 2 3 4 4 5 6 8 9 10 12 14 16 15 14 13 15 17 17 18 18 15 13 13 14 14 13 13 13 12 12 13
Wind_Direction
224 226 222 215 212 212 214 209 206 206 203 197 188 181 175 173 181 173 156 154 165 165 154 145 138 133 129 124 119 117 112 112 112 109 109 111 113 113 108 103 99 100 101 99 99 100 98 101 106 110 111 109 104 96 95 98 93 92 93 97 116 122 118 125 136 156 178 136 83 28 12 22 23 6 358 352 348 348 343 338 337 339 337 330 324
219 233 237 228 220 217 216 213 208 206 206 204 198 191 189 192 198 191 173 167 169 168 165 161 155 148 143 139 134 129 124 123 122 119 121 124 125 124 121 121 124 125 119 108 105 109 107 103 105 109 112 113 110 110 112 103 90 95 104 102 111 115 115 129 136 140 138 84 59 37 21 35 31 349 352 350 346 350 344 338 338 334 333 331 321
221 237 245 240 231 224 219 214 210 206 206 209 206 200 198 198 199 197 189 183 178 172 170 172 171 167 163 159 154 151 149 147 144 142 149 151 147 145 142 146 155 154 142 130 132 138 124 114 120 127 123 118 123 133 137 125 119 125 124 120 123 124 123 131 137 145 150 102 79 106 11 14 17 346 345 341 342 349 339 331 333 326 325 327 319
223 241 244 234 229 225 218 213 211 207 203 207 212 209 204 201 200 200 197 193 189 182 178 178 178 179 181 178 177 179 179 180 177 173 177 176 169 169 173 181 189 186 174 166 175 182 165 155 168 166 159 158 156 157 151 140 135 137 138 132 140 150 143 133 140 157 164 151 132 160 340 1 1 344 347 344 343 348 343 332 330 324 320 319 313
220 236 237 218 212 213 212 212 212 211 206 204 211 214 211 208 207 207 204 200 196 191 187 185 183 185 187 185 186 192 192 193 195 197 201 197 189 192 204 214 221 218 210 207 209 209 198 193 201 197 183 176 178 186 185 168 154 154 160 149 172 187 175 152 156 166 171 172 179 266 314 340 326 329 341 343 337 338 337 334 330 326 325 324 318
220 227 225 211 205 203 207 212 214 216 214 209 210 214 214 214 216 217 213 207 203 200 197 195 193 192 193 194 200 204 203 204 210 213 213 213 214 222 232 235 234 236 236 238 237 229 223 219 221 221 208 195 198 205 208 200 185 183 190 182 202 222 214 195 184 183 194 201 222 269 283 275 291 310 319 325 330 328 331 338 334 322 322 327 326
216 221 208 200 203 201 207 213 215 219 220 215 213 215 216 218 220 218 216 214 213 211 211 211 208 202 204 208 209 212 214 216 220 225 229 234 238 246 253 250 247 248 244 245 250 247 247 246 243 245 239 227 220 216 218 221 215 217 223 220 229 240 236 232 228 218 215 221 237 249 255 275 290 294 302 320 333 331 326 335 337 324 320 326 327
187 195 197 199 206 205 209 214 216 220 220 216 219 222 223 224 221 216 216 218 219 221 224 225 223 220 223 226 222 222 227 228 231 238 243 247 250 253 257 255 255 256 249 248 253 252 253 259 260 262 258 249 243 237 238 242 242 247 252 249 242 242 242 244 246 240 233 244 262 265 263 281 296 298 304 318 329 315 314 326 332 328 324 329 327
169 184 196 202 211 216 220 219 216 220 226 228 233 237 235 227 219 216 216 216 219 226 232 232 231 231 236 239 236 234 238 241 244 249 251 254 258 259 258 253 253 256 253 253 256 253 256 266 269 267 264 259 254 250 247 246 246 252 257 255 252 253 251 248 248 247 248 261 272 269 272 285 287 285 290 299 302 306 315 325 329 325 323 329 327
149 166 182 196 205 208 216 221 218 223 234 238 237 234 226 217 215 217 220 221 225 233 238 237 235 235 239 244 246 247 251 254 256 260 262 264 266 264 257 249 248 254 258 260 261 258 261 268 271 269 268 266 261 256 253 249 246 248 252 255 258 259 256 253 249 243 246 261 270 269 278 287 283 275 279 291 302 312 319 323 323 320 320 325 326
127 144 164 185 191 190 203 215 213 212 223 227 219 212 209 209 213 218 221 225 231 237 240 242 242 243 244 247 250 253 257 260 262 265 266 266 265 258 247 241 245 253 259 262 260 259 261 264 268 270 271 272 268 263 261 258 255 255 256 257 258 257 257 256 254 255 260 266 266 266 274 280 274 272 281 294 305 313 317 320 318 316 317 318 320
122 130 144 160 164 172 192 201 200 199 201 206 206 206 207 208 211 216 219 224 234 240 243 245 246 244 241 244 249 253 257 261 263 263 262 258 250 239 229 231 239 245 252 254 251 254 259 260 265 274 278 277 274 269 266 264 262 260 261 261 261 260 259 255 253 257 263 265 264 262 268 272 271 273 281 290 299 305 311 317 311 305 310 312 312
111 114 126 146 161 173 185 192 199 203 203 209 213 214 213 212 214 218 220 224 231 236 240 243 244 244 245 246 248 247 248 250 247 240 229 213 204 201 203 212 220 228 236 243 245 248 253 257 267 280 284 284 280 275 272 270 268 268 266 264 261 260 259 259 258 257 260 265 268 267 272 276 275 273 277 286 295 302 306 307 303 303 308 308 305
95 97 106 116 132 154 174 193 209 216 216 215 219 223 220 217 221 224 225 229 233 234 236 239 241 243 240 231 222 221 222 215 207 201 194 193 197 199 205 209 213 220 224 229 234 238 241 245 251 261 272 280 281 277 273 269 269 272 273 270 265 260 257 256 257 259 265 271 270 269 276 280 277 276 280 287 296 302 303 302 303 305 306 305 305
91 93 98 101 107 117 132 175 210 227 230 222 220 223 220 217 224 230 232 233 232 229 230 234 232 227 220 210 200 202 213 212 207 206 207 212 218 219 216 207 201 206 213 221 227 233 242 248 251 256 261 267 271 272 269 267 270 275 276 273 266 260 255 253 255 261 270 274 272 272 279 282 281 283 288 294 300 304 304 305 307 308 308 308 308
87 92 99 112 121 117 114 153 195 209 221 220 209 208 208 209 213 214 214 217 214 208 207 208 204 200 198 199 199 206 217 224 224 224 225 226 228 225 217 206 205 212 224 236 242 246 252 258 261 264 266 268 271 272 269 267 271 277 279 274 265 260 256 253 255 261 267 270 273 276 281 286 288 289 292 297 301 302 304 307 310 310 307 304 303
63 74 114 164 175 168 145 143 192 207 212 211 205 206 206 202 197 189 187 187 184 182 182 184 189 192 190 185 190 206 220 223 220 218 213 208 211 213 214 217 219 222 232 242 247 249 253 258 264 268 274 281 284 284 279 273 272 273 272 268 263 258 252 249 253 259 264 268 274 279 286 291 292 293 295 297 297 298 301 305 305 300 295 294 295
27 354 272 249 246 247 234 211 208 213 213 212 214 217 212 203 199 192 184 179 178 180 183 187 192 195 190 182 183 197 205 202 201 202 197 201 207 200 202 213 220 226 237 241 243 247 251 258 266 271 279 288 290 289 283 273 266 263 259 255 253 252 252 253 256 260 266 272 279 286 292 294 294 296 297 298 299 301 303 303 301 298 293 291 291
309 285 270 269 273 266 247 227 218 214 213 217 215 213 210 204 199 192 186 186 187 187 188 192 194 194 196 196 196 200 206 215 228 238 250 273 302 188 175 194 218 230 233 237 244 251 254 259 269 275 280 286 284 280 276 265 256 255 254 247 236 239 255 264 265 268 274 281 286 290 292 293 295 297 299 299 300 301 302 301 302 300 293 286 286
294 284 275 270 264 255 242 228 217 210 207 210 208 207 212 213 211 207 199 194 194 191 187 187 192 197 200 202 203 206 216 232 251 278 295 302 319 329 176 194 222 227 221 228 242 255 260 263 271 277 281 282 279 277 276 267 253 249 250 239 228 241 262 270 269 273 280 285 289 292 295 297 299 301 303 303 302 302 302 302 302 299 291 285 286
290 286 284 281 270 257 247 239 233 227 224 221 218 218 220 222 224 221 210 201 200 199 194 196 204 208 205 201 202 208 227 258 276 289 296 299 309 314 223 204 213 204 209 214 215 242 264 270 272 276 279 279 279 280 279 274 265 257 252 246 247 258 269 273 273 278 284 288 292 296 298 300 300 300 300 299 297 296 296 296 295 291 285 283 284
286 285 283 281 276 270 262 254 250 249 248 243 237 234 230 228 228 225 218 213 211 208 207 210 215 214 208 206 212 227 256 272 273 277 284 290 299 303 284 257 248 208 206 203 192 227 261 270 267 270 275 277 281 285 284 279 274 268 263 263 265 268 273 277 281 286 290 293 294 295 295 294 291 288 286 284 282 282 283 284 284 282 279 278 277
282 279 277 276 275 275 272 268 263 259 256 252 245 240 236 233 229 226 224 222 216 214 217 219 216 212 209 214 229 248 262 263 257 261 270 279 291 298 295 292 297 254 195 195 209 243 266 271 267 269 275 280 287 289 284 278 276 278 279 278 276 276 279 284 288 291 293 294 293 293 292 287 283 282 281 281 280 278 281 283 282 280 279 276 275
279 276 275 274 273 271 270 270 269 266 263 257 249 242 237 234 231 227 225 224 219 218 222 220 213 211 213 221 239 252 252 245 242 245 254 264 278 288 292 298 309 295 212 213 241 266 276 276 271 271 273 276 279 281 281 283 288 294 297 295 292 291 292 293 294 294 297 298 295 292 288 284 284 284 283 283 283 283 288 290 287 285 283 281 279
277 274 272 270 269 268 266 265 265 265 264 261 257 250 243 238 235 229 225 224 222 222 224 218 212 216 222 227 239 247 242 234 233 235 239 249 258 265 277 295 304 293 264 256 267 277 278 274 270 266 264 264 269 276 284 290 295 300 303 304 305 304 301 299 296 296 297 295 289 287 288 289 289 288 288 289 291 292 294 292 287 285 283 281 282
274 271 269 267 266 266 264 262 262 261 260 259 258 255 251 245 239 233 228 226 225 226 228 226 225 230 235 232 232 239 237 230 227 231 232 234 240 248 264 280 283 280 278 277 278 274 268 266 265 262 259 260 267 279 289 293 295 298 303 306 306 302 300 300 298 298 299 296 292 292 292 289 287 288 290 293 294 293 293 291 289 289 289 288 288
275 272 269 267 265 264 264 262 260 257 256 257 255 253 252 249 242 237 232 232 234 234 234 236 235 234 240 242 236 231 229 224 221 226 227 225 231 239 250 260 262 265 270 271 269 266 262 259 259 259 260 264 272 283 290 291 293 299 304 304 302 301 300 300 300 303 305 301 297 296 291 289 292 296 300 303 301 298 298 295 294 294 294 294 292
273 271 270 269 268 266 265 263 261 259 257 256 251 248 247 246 245 242 236 232 234 235 236 240 239 239 250 255 245 226 220 220 222 227 227 224 228 236 243 250 249 250 256 259 259 259 255 250 251 256 261 267 274 281 285 289 294 298 300 304 308 310 311 311 314 317 310 297 296 298 298 300 304 306 306 305 302 302 300 296 294 295 295 294 292
271 270 270 270 270 269 267 264 263 262 259 255 252 249 247 244 241 241 240 237 236 234 234 236 236 240 250 254 242 223 218 220 224 231 231 228 234 241 243 242 240 244 253 256 254 251 246 242 246 251 254 260 264 261 268 287 298 300 303 310 315 313 314 317 320 314 299 294 300 304 303 303 305 307 306 304 302 303 300 295 293 294 293 293 291
272 271 270 268 266 267 267 266 264 262 259 257 255 254 253 250 245 242 243 244 243 239 235 231 226 226 231 231 226 224 226 226 230 235 232 226 231 237 239 240 244 248 252 248 243 241 237 235 237 237 237 241 237 228 253 283 297 300 309 317 318 315 321 327 325 316 309 307 309 306 302 303 306 307 306 304 303 304 300 296 295 295 294 294 293
273 272 271 269 266 264 265 265 264 262 260 260 259 257 258 259 255 249 246 245 244 242 239 234 229 224 222 221 221 222 224 228 234 233 224 221 226 234 240 244 246 246 246 242 237 233 226 221 221 219 214 210 212 225 254 280 284 283 303 316 322 330 336 336 331 328 322 312 308 306 303 304 305 305 306 306 306 308 306 301 298 295 292 293 293
272 272 272 271 270 267 264 263 263 262 260 259 259 257 257 260 262 259 255 249 245 242 240 238 234 229 227 226 226 224 224 229 232 226 217 218 224 233 241 244 242 238 235 232 226 220 210 200 198 204 203 204 224 246 262 273 271 271 293 316 324 335 340 336 335 338 329 309 309 310 304 303 305 306 307 308 308 308 307 304 301 299 297 296 296
277 274 272 271 270 268 265 263 262 261 260 258 257 257 256 256 258 260 261 258 251 245 241 239 236 233 230 228 227 226 226 226 224 219 216 217 224 237 244 241 235 231 226 218 207 200 199 193 191 197 201 203 225 251 260 252 246 257 311 339 336 338 340 339 341 341 331 314 312 311 305 306 308 308 308 309 307 307 307 307 306 305 301 299 298
284 282 280 278 274 269 266 264 262 261 259 257 256 255 254 254 253 253 256 260 257 250 244 239 237 235 233 230 228 227 225 219 211 210 215 224 236 245 243 234 225 220 217 207 191 188 196 198 192 193 201 210 226 239 233 221 213 230 339 351 352 344 343 344 342 337 331 323 318 314 310 309 310 311 311 310 307 305 307 309 309 306 303 303 304
282 283 284 284 279 272 268 266 263 260 259 256 255 253 251 250 250 249 247 249 253 252 247 242 238 236 234 234 232 228 226 228 228 229 232 234 237 238 232 222 214 211 207 196 182 182 192 192 188 191 203 215 222 212 200 203 198 138 342 350 353 348 349 351 343 335 334 330 321 317 314 311 312 314 313 311 308 306 307 308 309 308 308 308 309
282 282 283 284 281 277 273 269 263 260 257 253 250 250 249 247 245 245 245 244 244 247 245 240 239 237 234 234 234 232 234 240 244 242 236 231 231 229 219 207 201 197 193 185 177 176 178 178 180 187 196 203 203 193 190 197 195 5 341 349 353 349 350 349 340 337 340 335 326 323 319 316 317 316 313 313 310 304 301 302 306 309 309 307 309
295 293 292 291 289 287 283 277 272 267 260 252 244 238 240 244 241 238 238 237 237 239 236 230 234 237 233 229 228 228 231 233 233 230 226 224 226 224 214 203 196 186 173 170 175 175 176 179 181 182 185 187 184 181 185 187 174 336 341 350 351 346 346 347 346 348 351 343 331 328 324 320 320 318 314 311 308 304 302 303 306 308 306 303 307
315 307 303 304 305 301 296 290 284 276 266 257 247 237 233 234 235 237 238 231 224 226 227 226 228 232 230 225 220 216 219 222 223 221 215 212 216 217 210 206 203 189 171 171 178 172 169 178 180 178 180 180 176 178 189 185 174 327 339 350 347 340 345 349 349 349 348 339 333 332 329 325 322 319 316 313 309 308 308 306 307 308 306 305 309
334 326 316 315 319 315 308 304 300 288 269 255 247 241 235 231 232 241 250 244 225 216 220 224 222 219 222 223 217 212 214 218 219 216 209 202 203 203 197 192 190 179 170 174 178 171 168 177 182 179 180 178 177 181 188 186 316 329 339 347 340 333 339 345 344 341 339 338 338 337 333 329 326 322 319 315 312 314 318 322 325 322 315 314 319
350 352 339 323 324 328 321 314 316 312 284 254 245 242 238 234 236 243 248 243 225 216 217 219 214 209 216 220 217 215 217 218 216 213 204 193 189 188 181 171 169 172 174 178 179 174 171 177 181 182 184 185 185 188 194 205 313 335 336 336 332 330 333 337 339 340 342 342 342 342 340 338 336 332 326 322 327 336 341 341 337 328 318 317 324
4 9 8 1 355 351 341 328 328 336 321 262 238 234 234 235 239 240 234 219 208 207 208 205 201 202 210 213 211 210 213 213 209 203 194 185 181 177 172 169 172 178 182 182 178 173 171 172 173 175 177 179 180 185 205 250 317 332 328 326 328 330 331 333 336 340 343 343 344 346 345 343 342 341 341 345 350 350 346 340 333 326 323 326 329
16 14 19 22 21 14 8 7 9 9 4 324 227 222 224 230 233 226 209 191 187 187 183 183 190 199 203 201 200 203 208 206 198 188 181 178 174 168 165 167 172 174 177 177 174 171 170 168 164 165 174 181 182 183 205 266 303 319 326 327 326 325 327 331 334 339 343 343 344 346 346 347 348 350 353 356 354 346 338 333 330 327 327 330 331
20 20 24 30 31 30 34 43 48 49 54 67 96 134 156 185 199 192 175 162 163 166 167 176 190 195 192 191 195 202 206 203 191 177 168 166 163 159 159 163 164 165 171 175 170 167 167 163 157 167 189 196 198 197 211 255 294 319 332 333 328 326 329 330 333 339 342 342 344 346 349 351 354 356 356 355 351 342 334 333 330 326 328 333 335
25 28 32 39 42 42 46 52 57 60 64 70 80 94 108 126 146 160 162 158 155 156 161 172 180 179 175 174 178 181 180 176 169 162 158 157 156 155 157 160 161 166 174 176 171 169 166 159 163 184 197 200 203 206 221 266 317 347 352 347 341 338 334 332 336 340 341 342 345 348 351 354 357 357 355 355 354 346 337 332 329 329 334 338 339
35 35 37 43 47 48 52 58 64 68 71 73 76 82 92 104 117 133 148 150 145 143 145 146 147 146 145 145 148 152 155 156 154 153 152 152 152 154 156 158 163 171 177 179 181 178 167 158 176 196 199 199 201 205 218 287 354 9 4 358 355 351 343 339 341 342 342 344 347 349 352 356 357 356 356 359 357 347 336 331 332 337 340 340 340
42 44 45 48 51 54 59 63 68 72 75 76 78 80 85 92 98 107 118 125 128 129 131 132 132 133 135 139 144 148 150 150 149 148 150 152 155 157 158 161 168 175 177 180 185 184 179 178 190 196 197 199 201 200 205 297 6 6 2 1 2 360 354 348 347 345 345 346 347 350 353 355 356 357 1 2 355 342 334 334 337 340 342 342 342
44 48 51 54 56 59 64 68 71 74 78 81 83 85 87 91 93 96 102 110 116 120 123 126 129 130 133 138 142 144 144 144 145 147 151 156 159 158 157 160 167 172 174 177 181 186 192 196 194 193 198 202 200 196 199 320 352 351 356 2 5 4 360 355 352 349 349 349 349 350 353 354 356 1 5 0 347 337 336 338 338 340 343 346 344
42 49 57 63 64 65 68 70 73 75 78 81 84 87 89 92 96 99 103 107 112 117 121 125 127 129 132 135 138 140 141 144 147 152 157 160 161 158 155 160 168 170 171 175 180 185 191 192 191 195 201 200 194 193 202 314 326 334 351 1 4 4 2 359 355 352 351 350 350 351 352 354 359 4 2 352 339 337 338 339 340 344 349 352 347
46 52 63 71 74 74 73 76 79 81 83 86 88 90 93 95 98 102 106 109 112 116 120 124 127 130 135 140 143 147 152 154 156 159 161 162 162 161 161 167 173 172 172 177 181 184 186 187 189 194 195 191 187 192 232 298 306 321 347 357 0 3 2 359 357 355 352 350 352 353 352 354 360 3 356 342 337 339 339 339 344 348 350 349 345
57 59 62 66 70 70 71 76 81 86 90 92 94 95 98 100 103 106 110 113 116 118 121 124 127 131 138 143 148 153 157 158 159 161 164 168 171 171 170 172 178 180 181 181 181 181 182 181 182 184 184 182 188 211 264 300 312 325 344 351 356 360 358 358 359 358 353 350 353 354 354 355 359 358 351 341 340 343 343 342 346 348 346 344 343
66 68 66 63 64 66 69 72 74 79 86 92 96 101 106 109 111 111 110 112 117 121 125 128 131 133 135 139 143 147 152 157 162 168 175 180 183 183 185 188 187 186 187 184 178 177 178 177 175 175 176 180 200 236 278 309 322 331 338 345 351 353 353 356 359 358 355 352 352 354 358 359 356 351 346 342 343 346 346 345 347 348 346 345 346